TimeCDT,TemperatureF,Dew PointF,Humidity,Sea Level PressureIn,VisibilityMPH,Wind Direction,Wind SpeedMPH,Gust SpeedMPH,PrecipitationIn,Events,Conditions,WindDirDegrees,DateUTC
12:54 AM,64.0,57.0,78,30.13,10.0,North,5.8,-,N/A,,Clear,360,2014-07-30 05:54:00
1:54 AM,64.9,57.0,75,30.12,10.0,North,4.6,-,N/A,,Clear,350,2014-07-30 06:54:00
2:54 AM,62.1,55.9,80,30.12,10.0,North,3.5,-,N/A,,Clear,10,2014-07-30 07:54:00
3:54 AM,59.0,55.9,90,30.11,10.0,North,5.8,-,N/A,,Clear,360,2014-07-30 08:54:00
4:54 AM,57.9,54.0,87,30.12,10.0,NNW,3.5,-,N/A,,Clear,340,2014-07-30 09:54:00
5:54 AM,55.9,52.0,87,30.14,10.0,North,4.6,-,N/A,,Clear,360,2014-07-30 10:54:00
6:54 AM,57.9,54.0,87,30.14,9.0,North,5.8,-,N/A,,Clear,360,2014-07-30 11:54:00
7:54 AM,62.1,55.9,80,30.14,9.0,North,3.5,-,N/A,,Clear,10,2014-07-30 12:54:00
8:54 AM,68.0,57.0,68,30.15,9.0,NNE,3.5,-,N/A,,Clear,20,2014-07-30 13:54:00
9:54 AM,75.0,55.9,51,30.14,10.0,Variable,5.8,-,N/A,,Clear,0,2014-07-30 14:54:00
10:54 AM,78.1,52.0,40,30.15,10.0,ENE,9.2,-,N/A,,Clear,60,2014-07-30 15:54:00
11:54 AM,79.0,52.0,39,30.15,10.0,NNW,5.8,-,N/A,,Mostly Cloudy,340,2014-07-30 16:54:00
12:54 PM,81.0,51.1,35,30.14,10.0,Variable,5.8,-,N/A,,Unknown,0,2014-07-30 17:54:00
1:54 PM,82.9,50.0,32,30.13,10.0,North,-9999.0,-,N/A,,Scattered Clouds,0,2014-07-30 18:54:00
2:54 PM,81.0,48.9,33,30.12,10.0,North,6.9,-,N/A,,Scattered Clouds,360,2014-07-30 19:54:00
3:54 PM,82.0,50.0,33,30.11,10.0,Variable,6.9,-,N/A,,Scattered Clouds,0,2014-07-30 20:54:00
4:54 PM,81.0,50.0,34,30.10,10.0,NE,12.7,-,N/A,,Mostly Cloudy,50,2014-07-30 21:54:00
5:54 PM,81.0,50.0,34,30.09,10.0,NNE,10.4,-,N/A,,Scattered Clouds,30,2014-07-30 22:54:00
6:54 PM,80.1,52.0,38,30.09,10.0,NNE,9.2,-,N/A,,Clear,20,2014-07-30 23:54:00
7:54 PM,75.9,53.1,45,30.09,10.0,NE,5.8,-,N/A,,Clear,40,2014-07-31 00:54:00
8:54 PM,73.0,52.0,48,30.09,10.0,ENE,5.8,-,N/A,,Clear,60,2014-07-31 01:54:00
9:54 PM,71.1,53.1,53,30.10,10.0,Calm,Calm,-,N/A,,Clear,0,2014-07-31 02:54:00
10:54 PM,66.9,55.0,66,30.10,10.0,Calm,Calm,-,N/A,,Clear,0,2014-07-31 03:54:00
11:54 PM,61.0,55.0,81,30.11,10.0,Calm,Calm,-,N/A,,Clear,0,2014-07-31 04:54:00